Preview of NWS' New Version of Forecast
This preview is not operational and should not be used for support decisions.

Regional Weather Roundup (RWR)

Issued by National Weather Service (NWS)

                            
000
ASPQ40 PGUM 200510
RWRPQ 
WEATHER ROUNDUP FOR THE MARIANAS AND MICRONESIA
NATIONAL WEATHER SERVICE TIYAN GU
300 PM CHST TUE AUG 20 2019

GUZ001>004-200600-
MARIANA ISLANDS-
  
CITY           SKY/WX    TMP DP  RH WIND       PRES   REMARKS
GUAM AIRPORT   MOSUNNY   86  75  70 S13       29.79F HX  95           
ANDERSEN AFB   PTSUNNY   88  77  70 S14       29.80F HX 100           
ROTA AIRPORT   MOSUNNY   84  75  74 S15       29.76  HX  92           
TINIAN AP      MOSUNNY   90  77  66 SW9       29.76F HX 102           
SAIPAN AP      MOSUNNY   88  75  66 S8        29.78F HX  97           

$$

PMZ161-200600-
REPUBLIC OF PALAU-
  
CITY           SKY/WX    TMP DP  RH WIND       PRES   REMARKS
KOROR AP       PTSUNNY   84  75  74 SW14G22   29.74F HX  92           
KOROR WSO      NOT AVBL                                               

$$

PMZ171>174-200600-
FEDERATED STATES OF MICRONESIA-
  
CITY           SKY/WX    TMP DP  RH WIND       PRES   REMARKS
YAP AIRPORT    CLOUDY    82  77  83 SW9       29.74F HX  91           
CHUUK AP       CLOUDY    86  79  79 NW8       29.73F HX  99           
POHNPEI AP     PTSUNNY   90  81  74 NW6       29.70F HX 108           
POHNPEI WSO    PTSUNNY   88  77  70 NW3       29.74S HX 100           
KOSRAE AP      NOT AVBL                                               

$$

PMZ181-200600-
REPUBLIC OF THE MARSHALL ISLANDS-
  
CITY           SKY/WX    TMP DP  RH WIND       PRES   REMARKS
KWAJALEIN AP   SUNNY     88  75  66 S5        29.72F HX  97           
MAJURO AP      NOT AVBL                                               
MAJURO WSO     PTSUNNY   84  77  79 SW7       29.72S HX  94           

$$